Location: Maddington
(51.2000°N, 1.9167°W)
Time: 13:01:27
(UTC+00:00)

Cosmos 2251 Rocket - Pass Details

Date: 18 September 2020
Orbit: 765 x 792 km, 74.0° (Epoch: 21 October)

Event Time Altitude Azimuth Distance (km) Brightness Sun altitude
Rises 21:46:37 0° 335° (NNW) 3,303 7.9 -30.1°
Reaches altitude 10° 21:49:02 10° 335° (NNW) 2,368 6.9 -30.4°
Enters shadow 21:53:18 57° 337° (NNW) 926 4.0 -30.8°
